Regional Weather Roundup
Issued by NWS

Home | Current Version | Previous Version | Graphics & Text | Print | Product List | Glossary On
Versions: 1 2 3 4 5 6 7 8 9 10 11 12 13 14 15 16 17 18 19 20 21 22 23 24 25 26 27 28 29 30 31 32 33 34 35 36 37 38 39 40 41 42 43 44 45 46 47 48 49 50
000
ASUS43 KMPX 171401
RWRMN
WEATHER ROUNDUP FOR MINNESOTA
NATIONAL WEATHER SERVICE TWIN CITIES/CHANHASSEN MN
800 AM CST WED DEC 17 2014


NOTE: "FAIR" INDICATES FEW OR NO CLOUDS BELOW 12,000 FEET WITH NO
SIGNIFICANT WEATHER AND/OR OBSTRUCTIONS TO VISIBILITY. N/A MEANS
CURRENT SKY AND/OR WEATHER CONDITIONS ARE NOT AVAILABLE.

MNZ060>063-068>070-171500-
   Twin Cities Metro

CITY           SKY/WX    TMP DP  RH WIND       PRES   REMARKS
TWIN CITIES    PTCLDY     9   5  84 W8        30.32R WCI  -3
ST PAUL        CLOUDY    12   8  84 NW8       30.33S WCI   0
CRYSTAL        CLOUDY    11   6  81 W7        30.30S WCI   0
LAKEVILLE      FLURRIES   7   3  85 W6        30.30S WCI  -3
EDEN PRAIRIE   CLEAR      9   5  84 W7        30.30S WCI  -2
SOUTH ST PAUL  CLOUDY    11   8  85 W5        30.31S WCI   3
LAKE ELMO      FLURRIES  12   9  85 W6        30.30S WCI   3
$$
MNZ001>005-007-008-013>017-022>024-027-028-171500-
   Northwest Minnesota

CITY           SKY/WX    TMP DP  RH WIND       PRES   REMARKS
BEMIDJI        SNOW       8   5  89 NW3       30.28S VSB 1/2
HALLOCK        PTCLDY     0  -4  85 N3        30.37S
ROSEAU         PTCLDY     3  -2  78 N3        30.34S
WARROAD        FLURRIES   3   0  85 NW3       30.33F
THIEF RVR FALL CLEAR      3   1  92 CALM      30.33S
CROOKSTON      PTCLDY     0  -2  92 NW3       30.38R
FOSSTON        PTCLDY    -2  -6  84 CALM      30.31F
DETROIT LAKES  MOCLDY     3   1  92 NW5       30.30S WCI  -6
MOORHEAD       PTCLDY     1   1 100 N3        30.37S
PARK RAPIDS    PTCLDY     4   1  88 NW5       30.26S WCI  -5
MAHNOMEN       FAIR       2  -2  85 CALM      30.31S
$$
MNZ006-009>011-018-025>026-171500-
   North Central Minnesota

CITY           SKY/WX    TMP DP  RH WIND       PRES   REMARKS
BAUDETTE       MOCLDY    11   7  84 N7        30.30F WCI   0
FLAG ISLAND    MOCLDY     7   3  85 N6        30.33S WCI  -3
INTL FALLS     CLOUDY    12   6  77 N6        30.29S WCI   3
WASKISH        FLURRIES  12  10  92 CALM      30.30S
BIG FORK       FLURRIES  10   7  85 CALM      30.27S
LONGVILLE      FLURRIES  10   9  92 N3        30.27R
GRAND RAPIDS   MOCLDY    10   5  79 N10       30.24S WCI  -3
CRANE LAKE     CLOUDY     9   7  92 N3        30.29S
ORR            FLURRIES   9   5  85 CALM      30.24R
COOK           FLURRIES   9   7  92 CALM      30.25R
WALKER         FLURRIES   9   6  87 CALM      30.27R
$$
MNZ012-019>021-037-171500-
   Northeast Minnesota

CITY           SKY/WX    TMP DP  RH WIND       PRES   REMARKS
DULUTH         PTCLDY    10   5  80 NW8       30.20R WCI  -2
ELY            LGT SNOW   9   7  92 NW3       30.21S
HIBBING        CLOUDY    12   6  77 N10       30.24R WCI  -1
EVELETH        LGT SNOW  12   9  85 N6        30.24R WCI   3
DULUTH HARBOR  PTCLDY    16  10  79 N15G21    30.27S WCI   1
SILVER BAY     CLOUDY    14   7  73 CALM      30.19R
GRAND MARAIS     N/A     19   9  65 VRB6      30.21R WCI  11
G MARAIS ARPRT CLOUDY    10   5  79 N12       30.13R WCI  -4
$$
MNZ029>031-032-039>041-046>048-054>057-064-171500-
   West Central Minnesota

CITY           SKY/WX    TMP DP  RH WIND       PRES   REMARKS
FERGUS FALLS   PTCLDY     0  -4  85 W7        30.37S WCI -13
WHEATON        FLURRIES   0  -2  92 W5        30.38S WCI -10
MORRIS         PTCLDY     3   1  92 NW8       30.32F WCI -10
ALEXANDRIA     PTCLDY     4   0  83 W9        30.29S WCI -10
ELBOW LAKE     FAIR       1  -1  88 W6        30.32F WCI -10
WADENA         MOCLDY     3   1  92 NW5       30.27S WCI  -6
GLENWOOD       PTCLDY     1   0  92 W9        30.30S WCI -14
APPLETON       PTCLDY     5   1  85 CALM      30.36R
BENSON         PTCLDY     3   1  92 CALM      30.33S
ORTONVILLE     FLURRIES   5   1  85 W5        30.35R WCI  -4
MADISON        PTCLDY     9   7  92 NW3       30.36S
WILLMAR        LGT SNOW   9   3  78 W6        30.33S WCI  -1
$$
MNZ033>034-036-042>043-049>051-058-059-171500-
   Central Minnesota

CITY           SKY/WX    TMP DP  RH WIND       PRES   REMARKS
ST CLOUD       PTCLDY     9   4  80 W5        30.29F WCI   1
SAUK CENTRE    FAIR       4   1  88 W7        30.30S WCI  -8
PAYNESVILLE    PTCLDY     2   1  92 SW8       30.31S WCI -11
AITKIN         FLURRIES  12   7  79 CALM      30.26R
PINE RIVER     CLOUDY    12   9  85 N7        30.29R WCI   2
BRAINERD       MOCLDY     8   6  92 CALM      30.27R
STAPLES        PTCLDY     5   3  92 W5        30.27S WCI  -4
LONG PRAIRIE   FAIR       7   3  85 CALM      30.28S
LITTLE FALLS   PTCLDY     9   3  78 CALM      30.29S
LITCHFIELD     CLEAR      9   7  92 NW7       30.32R WCI  -3
BUFFALO        MOCLDY     8   5  86 W7        30.32S WCI  -3
MAPLE LAKE     PTCLDY     9   6  91 W5        30.32S WCI   0
$$
MNZ037-044-045-052-053-171500-
   East Central Minnesota

CITY           SKY/WX    TMP DP  RH WIND       PRES   REMARKS
PRINCETON      PTCLDY     7   5  92 CALM      30.29S
MORA           MOCLDY    12   7  79 NW5       30.30R WCI   4
CAMBRIDGE      FLURRIES  14   7  73 NW6       30.28S WCI   5
RUSH CITY      FAIR       9   7  89 CALM      30.29R
MOOSE LAKE     FLURRIES  10   7  85 CALM      30.25S
HINCKLEY       FAIR      12   9  85 CALM      30.28R
CLOQUET        FLURRIES  10   7  85 NW7       30.22S WCI   0
MCGREGOR       PTCLDY    10   9  92 NW3       30.26S
$$
MNZ071>073-080-081-089-090-097-098-171500-
   Southwest Minnesota

CITY           SKY/WX    TMP DP  RH WIND       PRES   REMARKS
MONTEVIDEO     PTCLDY     3   1  92 CALM      30.36S
GRANITE FALLS  PTCLDY     5   2  88 W6        30.37R WCI  -5
CANBY          PTCLDY     5   3  89 W3        30.36R
MARSHALL       PTCLDY     3   0  85 NW5       30.33S WCI  -6
REDWOOD FALLS  PTCLDY     7   3  84 W9        30.34S WCI  -7
OLIVIA         PTCLDY     9   5  85 W7        30.33S WCI  -3
PIPESTONE      PTCLDY     7   3  85 CALM      30.28S FOG
WINDOM         LGT SNOW   7   5  92 NW9       30.30F WCI  -7
WORTHINGTON    PTCLDY     5   5 100 NW5       30.30R WCI  -4
JACKSON        PTCLDY    10   5  79 N6        30.29F WCI   1
TRACY          PTCLDY     7   4  89 CALM      30.33S
SLAYTON        PTCLDY     7   5  92 CALM      30.30S
$$
MNZ065>067-074>077-082>085-091>093-171500-
   South Central Minnesota

CITY           SKY/WX    TMP DP  RH WIND       PRES   REMARKS
MANKATO        CLEAR      9   1  72 NW9       30.32S WCI  -5
NEW ULM        LGT SNOW   7   5  92 W6        30.33S WCI  -3
ST JAMES       FLURRIES   9   7  92 W7        30.34S WCI  -3
FAIRMONT       PTCLDY     9   3  78 NW7       30.30S WCI  -3
GLENCOE        CLEAR     10   8  89 W7        30.32S WCI  -1
FARIBAULT      LGT SNOW   9   5  85 W5        30.31R WCI   0
OWATONNA       LGT SNOW   9   5  85 W6        30.30R WCI  -1
WASECA         CLEAR     10   7  85 W7        30.32S WCI   0
ALBERT LEA     PTCLDY     9   7  92 NW7       30.28S WCI  -3
$$
MNZ078>079-086>088-094>096-171500-
   Southeast Minnesota

CITY           SKY/WX    TMP DP  RH WIND       PRES   REMARKS
ROCHESTER      LGT SNOW  11   8  88 W12       30.26S VSB 1   WCI  -3
RED WING       LGT SNOW  10   7  85 NW3       30.30S
STANTON        CLEAR     10   6  83 W8        30.30S WCI  -2
DODGE CENTER   LGT SNOW   9   7  92 CALM      30.27R
WINONA         FLURRIES  19  14  79 W9        30.29S WCI   9
AUSTIN         LGT SNOW   9   7  92 NW9       30.28S WCI  -5
PRESTON        LGT SNOW  13  10  87 NW10      30.26S WCI   0
$$
ABBREVIATIONS USED IN REMARKS
   TC - TEMPERATURES IN CELSIUS
  WCI - WIND CHILL INDEX
   HX - HEAT INDEX
  VSB - VISIBILITY
$$



USA.gov is the U.S. government's official web portal to all federal, state and local government web resources and services.